Carolina, PR

7:04 PM AST on January 18, 2017 (GMT -0400)
Luis Munoz Marin International

Weather History for TJSJ - April, 2011

Change the Weather History Date:

Sunday, April 24, 2011

  Actual Average Record
Temperature  
Mean Temperature 80 °F 81 °F  
Max Temperature 86 °F 87 °F 95 °F (1983)
Min Temperature 74 °F 75 °F 65 °F (1963)
Degree Days  
Heating Degree Days 0 0  
Month to date heating degree days 0 0  
Since 1 July heating degree days 0 0  
Cooling Degree Days 15 16  
Month to date cooling degree days 351 365  
Year to date cooling degree days 1498 1547  
Growing Degree Days 30 (Base 50)    
Moisture  
Dew Point 70 °F    
Average Humidity 71    
Maximum Humidity 87    
Minimum Humidity 55    
Precipitation  
Precipitation 0.00 in 0.19 in 3.66 in (1933)
Month to date precipitation 1.24 3.49  
Year to date precipitation 7.41 11.59  
Snow  
Snow 0.00 in 0.00 in - ()
Month to date snowfall 0.0 0.0  
Since 1 July snowfall 0.0 0.0  
Snow Depth 0.00 in    
Sea Level Pressure  
Sea Level Pressure 30.00 in    
Wind  
Wind Speed 8 mph (ENE)    
Max Wind Speed 17 mph    
Max Gust Speed 22 mph    
Visibility 10 miles    
Events      
T = Trace of Precipitation, MM = Missing Value Source: NWS Daily Summary

Daily Weather History Graph

Daily Weather History Graph

Search for Another Location

Airport or City:

Trip Planner

Search our weather history database for the weather conditions in past years. The results will help you decide how hot, cold, wet, or windy it might be!

Date:

Astronomy

Apr. 24, 2011 Rise Set
Actual Time 6:01 AM AST 6:43 PM AST
Civil Twilight 5:38 AM AST 7:05 PM AST
Nautical Twilight 5:12 AM AST 7:32 PM AST
Astronomical Twilight 4:45 AM AST 7:59 PM AST
Moon 12:20 AM AST (4/24) 11:51 AM AST (4/24)
Length of Visible Light 13h 27m
Length of Day
12h 42m
Waning Gibbous, 55% of the Moon is Illuminated
Apr 24
Waning Gibbous
Apr 24
Last Quarter
May 3
New
May 10
First Quarter
May 17
Full

Hourly Weather History & Observations

Time (AST) Temp. Heat Index Dew Point Humidity Pressure Visibility Wind Dir Wind Speed Gust Speed Precip Events Conditions
12:56 AM 77.0 °F - 69.1 °F 76% 30.01 in 10.0 mi Calm Calm - N/A   Partly Cloudy
1:56 AM 77.0 °F - 69.1 °F 76% 30.00 in 10.0 mi Calm Calm - N/A   Partly Cloudy
2:56 AM 75.9 °F - 69.1 °F 79% 29.98 in 10.0 mi Calm Calm - N/A   Partly Cloudy
3:56 AM 75.0 °F - 69.1 °F 82% 29.98 in 10.0 mi Calm Calm - N/A   Clear
4:56 AM 73.9 °F - 68.0 °F 82% 29.97 in 10.0 mi Calm Calm - N/A   Clear
5:56 AM 73.9 °F - 69.1 °F 85% 29.99 in 10.0 mi Calm Calm - N/A   Scattered Clouds
6:56 AM 75.0 °F - 69.1 °F 82% 30.00 in 10.0 mi Calm Calm - N/A   Scattered Clouds
7:56 AM 78.1 °F - 69.1 °F 74% 30.01 in 10.0 mi ESE 4.6 mph - N/A   Scattered Clouds
8:56 AM 81.0 °F 84.4 °F 70.0 °F 69% 30.02 in 10.0 mi East 6.9 mph - N/A   Scattered Clouds
9:56 AM 84.0 °F 87.0 °F 68.0 °F 58% 30.03 in 10.0 mi ENE 11.5 mph - N/A   Scattered Clouds
10:56 AM 84.9 °F 88.8 °F 69.1 °F 59% 30.03 in 10.0 mi ENE 11.5 mph - N/A   Scattered Clouds
11:56 AM 86.0 °F 89.4 °F 68.0 °F 55% 30.02 in 10.0 mi NE 16.1 mph - N/A   Scattered Clouds
12:56 PM 86.0 °F 89.4 °F 68.0 °F 55% 30.01 in 10.0 mi NE 12.7 mph - N/A   Scattered Clouds
1:56 PM 84.0 °F 87.8 °F 69.1 °F 61% 29.99 in 10.0 mi ENE 15.0 mph 21.9 mph N/A   Scattered Clouds
2:56 PM 84.9 °F 88.8 °F 69.1 °F 59% 29.97 in 10.0 mi NE 12.7 mph - N/A   Mostly Cloudy
3:56 PM 82.9 °F 86.5 °F 69.1 °F 63% 29.95 in 10.0 mi ENE 13.8 mph 21.9 mph N/A   Scattered Clouds
4:56 PM 81.0 °F 84.1 °F 69.1 °F 67% 29.96 in 10.0 mi ENE 15.0 mph - N/A   Mostly Cloudy
5:56 PM 81.0 °F 84.1 °F 69.1 °F 67% 29.96 in 10.0 mi ENE 16.1 mph - N/A   Mostly Cloudy
6:56 PM 79.0 °F - 71.1 °F 77% 29.98 in 10.0 mi ENE 13.8 mph - N/A   Mostly Cloudy
7:56 PM 79.0 °F - 71.1 °F 77% 29.99 in 10.0 mi ENE 11.5 mph - N/A   Scattered Clouds
8:56 PM 78.1 °F - 71.1 °F 79% 30.01 in 10.0 mi East 10.4 mph - N/A   Scattered Clouds
9:56 PM 78.1 °F - 72.0 °F 81% 30.01 in 10.0 mi East 11.5 mph - N/A   Scattered Clouds
10:56 PM 78.1 °F - 72.0 °F 81% 30.02 in 10.0 mi East 10.4 mph - N/A   Scattered Clouds
11:56 PM 78.1 °F - 72.0 °F 81% 30.01 in 10.0 mi East 9.2 mph - N/A   Scattered Clouds